PBO Station Position Time Series. Reference Frame : NAM14
Format Version,1.1.1
4-character ID,OBSR
Station name,Observation_Rock
Begin Date, 2008-09-10
End Date, 2023-06-26
Release Date, 2023-06-27
Reference position, 46.8997979028 North Latitude, -121.8153655688 East Longitude, 2363.11183 meters elevation,
Date, North (mm), East (mm), Vertical (mm), North Std. Deviation (mm), East Std. Deviation (mm),              Vertical Std. Deviation (mm), Quality,
2008-09-10,0.00, 0.00, 0.00, 2.37, 1.65, 7.36, repro,
2008-09-11,-1.86, 0.68, 0.80, 2.31, 1.61, 7.18, repro,
2008-09-12,-0.13, -1.55, 12.09, 2.40, 1.65, 7.39, repro,
2008-09-13,-0.37, -1.10, 10.69, 2.40, 1.65, 7.43, repro,
2008-09-14,-0.98, 0.05, 7.73, 2.39, 1.64, 7.36, repro,
2008-09-15,-1.20, 0.99, 1.11, 2.38, 1.65, 7.40, repro,
2008-09-16,-0.58, 0.97, 0.67, 2.39, 1.66, 7.47, repro,
2008-09-17,-1.05, 1.87, -3.21, 2.49, 1.70, 7.64, repro,
2008-09-18,-1.73, 1.04, -0.23, 2.39, 1.63, 7.32, repro,
2008-09-19,-3.82, -0.00, 4.25, 2.36, 1.62, 7.31, repro,
2008-09-20,0.06, -0.16, -3.12, 2.37, 1.62, 7.31, repro,
2008-09-21,-0.17, 1.21, -18.31, 2.40, 1.65, 7.38, repro,
2008-09-22,0.85, -1.41, 0.89, 2.32, 1.57, 7.17, repro,
2008-09-23,-1.69, -0.29, 3.75, 2.37, 1.62, 7.27, repro,
2008-09-24,1.12, 1.10, -1.99, 2.41, 1.65, 7.49, repro,
2008-09-25,-0.14, 0.93, -2.49, 2.44, 1.64, 7.57, repro,
2008-09-26,-0.11, 0.16, -0.40, 2.36, 1.59, 7.26, repro,
2008-09-27,0.43, 1.61, 0.48, 2.46, 1.72, 7.69, repro,
2008-09-28,-1.21, 0.92, -2.20, 2.36, 1.60, 7.24, repro,
2008-09-29,-1.09, 0.57, -0.39, 2.41, 1.67, 7.40, repro,
2008-09-30,-2.00, 0.47, 3.22, 2.32, 1.56, 7.15, repro,
2008-10-01,-2.37, 2.22, -3.93, 2.38, 1.61, 7.26, repro,
2008-10-02,1.13, 3.69, -6.76, 2.38, 1.64, 7.37, repro,
2008-10-03,-4.52, -0.28, -3.25, 2.36, 1.60, 7.24, repro,
2008-10-04,-1.45, 2.78, -10.46, 2.33, 1.58, 7.20, repro,
2008-10-05,-1.34, -1.88, 8.49, 2.31, 1.58, 7.15, repro,
2008-10-06,-0.08, 0.56, 2.07, 2.38, 1.60, 7.37, repro,
2008-10-07,-0.74, -0.53, 5.32, 2.37, 1.57, 7.15, repro,
2008-10-08,-0.90, -2.01, -6.98, 2.35, 1.61, 7.29, repro,
2008-10-09,-4.29, -2.59, -2.84, 2.36, 1.60, 7.29, repro,
2008-10-10,-3.46, -1.92, -8.14, 2.30, 1.58, 7.21, repro,
2008-10-11,-2.37, 3.17, -3.67, 2.33, 1.58, 7.27, repro,
2008-10-12,0.91, 8.02, 0.17, 2.31, 1.56, 7.19, repro,
2008-10-13,-0.90, 3.38, -2.31, 2.27, 1.56, 7.10, repro,
2008-10-14,0.81, -0.15, 1.01, 2.26, 1.54, 7.02, repro,
2008-10-15,-0.42, -0.03, 2.64, 2.32, 1.57, 7.21, repro,
2008-10-16,2.85, 1.86, -8.02, 2.44, 1.67, 7.59, repro,
2008-10-17,4.02, 3.05, -7.19, 2.29, 1.56, 7.21, repro,
2008-10-18,0.78, 1.57, -2.94, 2.26, 1.57, 7.15, repro,
2008-10-19,-0.94, 0.01, 0.34, 2.25, 1.56, 7.11, repro,
2008-10-20,0.53, 1.34, -0.87, 2.30, 1.61, 7.24, repro,
2008-10-21,-1.06, 0.55, -8.95, 2.37, 1.64, 7.49, repro,
2008-10-22,1.08, 3.11, -8.97, 3.01, 2.10, 9.18, repro,
2008-10-23,0.92, 0.87, 6.17, 2.32, 1.60, 7.22, repro,
2008-10-24,0.55, 0.89, 9.25, 2.37, 1.69, 7.63, repro,
2008-10-25,0.59, -0.99, 5.73, 2.30, 1.63, 7.27, repro,
2008-10-27,0.13, 2.43, -6.39, 2.39, 1.66, 7.44, repro,
2008-10-28,-0.03, 1.83, -3.96, 2.52, 1.72, 7.65, repro,
2008-10-29,-1.24, -0.35, 7.72, 2.38, 1.61, 7.30, repro,
2008-10-30,1.31, 4.09, -12.92, 2.27, 1.57, 7.14, repro,
2008-10-31,1.84, 5.51, -33.74, 2.33, 1.61, 7.29, repro,
2008-11-01,-1.05, 5.26, -17.20, 2.31, 1.57, 7.18, repro,
2008-11-02,2.39, 1.59, 2.31, 2.38, 1.66, 7.55, repro,
2008-11-03,1.88, 0.17, 3.47, 2.47, 1.74, 7.69, repro,
2008-11-04,-0.25, -0.70, 7.75, 2.28, 1.60, 7.29, repro,
2008-11-05,-0.12, -1.05, -0.66, 2.31, 1.63, 7.23, repro,
2008-11-06,3.04, 2.51, -5.73, 2.35, 1.65, 7.37, repro,
2008-11-07,5.56, 4.01, -14.49, 2.30, 1.60, 7.25, repro,
2008-11-08,6.36, 4.85, -16.20, 2.37, 1.67, 7.61, repro,
2008-11-09,0.18, -0.40, 4.56, 2.30, 1.61, 7.36, repro,
2008-11-10,0.49, 1.03, -5.43, 2.28, 1.61, 7.25, repro,
2008-11-11,0.05, 1.36, -2.03, 2.29, 1.59, 7.24, repro,
2008-11-12,3.73, 0.87, 6.89, 2.27, 1.58, 7.17, repro,
2008-11-13,2.65, -2.21, 4.04, 2.35, 1.65, 7.46, repro,
2008-11-14,-0.57, -2.08, -9.34, 2.39, 1.74, 7.80, repro,
2008-11-15,2.49, 2.85, -10.08, 2.30, 1.60, 7.30, repro,
2008-11-16,0.94, 1.46, -4.59, 2.33, 1.67, 7.58, repro,
2008-11-17,0.85, 3.92, -11.06, 2.36, 1.68, 7.56, repro,
2008-11-18,3.41, 1.59, -4.94, 2.31, 1.63, 7.39, repro,
2008-11-19,0.18, 4.12, -5.25, 2.31, 1.65, 7.44, repro,
2008-11-20,0.28, 11.48, -19.16, 2.45, 1.79, 7.90, repro,
2008-11-21,-0.61, 13.78, -9.55, 2.46, 1.80, 8.09, repro,
2008-11-22,0.46, 14.48, 1.72, 2.34, 1.67, 7.55, repro,
2008-11-23,-0.50, 15.98, -4.48, 2.42, 1.71, 7.54, repro,
2008-11-24,-1.41, 15.54, -2.96, 2.35, 1.72, 7.73, repro,
2008-11-25,-1.16, 16.29, -8.20, 2.40, 1.75, 7.80, repro,
2008-11-26,0.29, 15.94, -6.17, 2.30, 1.63, 7.38, repro,
2008-11-27,0.83, 15.67, -9.03, 2.36, 1.69, 7.59, repro,
2008-11-28,0.05, 14.53, -0.59, 2.43, 1.83, 7.93, repro,
2008-11-29,1.88, 15.82, -7.80, 2.30, 1.66, 7.46, repro,
2008-11-30,-0.70, 14.59, 0.71, 2.36, 1.68, 7.58, repro,
2008-12-01,-1.42, 14.47, 0.67, 2.28, 1.61, 7.27, repro,
2008-12-02,1.56, 13.79, -4.75, 2.35, 1.67, 7.44, repro,
2008-12-03,-0.02, 12.31, -9.24, 4.28, 2.91, 13.57, repro,
2008-12-04,0.11, 13.76, -2.67, 2.30, 1.61, 7.36, repro,
2008-12-05,-0.58, 13.26, -4.85, 2.31, 1.66, 7.38, repro,
2008-12-06,1.08, 13.25, -10.90, 2.32, 1.66, 7.48, repro,
2008-12-07,1.43, 10.79, -5.40, 2.30, 1.70, 7.57, repro,
2008-12-08,-0.33, 8.98, -2.08, 2.28, 1.64, 7.37, repro,
2008-12-09,0.51, 10.16, -13.80, 2.32, 1.60, 7.19, repro,
2008-12-10,3.40, 10.78, -7.73, 2.41, 1.72, 7.56, repro,
2008-12-11,0.74, 9.76, -10.31, 2.40, 1.65, 7.40, repro,
2008-12-12,1.02, 11.13, -4.76, 2.40, 1.75, 7.88, repro,
2008-12-13,2.47, 10.78, 1.31, 2.25, 1.59, 7.16, repro,
2008-12-14,-1.09, 9.85, -1.16, 2.32, 1.59, 7.17, repro,
2008-12-15,0.07, 8.95, -1.37, 2.31, 1.58, 7.24, repro,
2008-12-16,-0.35, 9.23, 1.71, 2.30, 1.57, 7.20, repro,
2008-12-17,0.80, 12.47, -9.78, 2.34, 1.59, 7.27, repro,
2008-12-18,-0.55, 9.67, 0.37, 2.23, 1.55, 7.05, repro,
2008-12-19,0.16, 7.38, 0.03, 2.33, 1.58, 7.30, repro,
2008-12-20,-0.25, 7.42, -4.88, 2.37, 1.68, 7.58, repro,
2008-12-21,-0.17, 11.95, -8.90, 2.35, 1.64, 7.36, repro,
2008-12-22,-2.17, 8.48, 2.66, 2.32, 1.59, 7.25, repro,
2008-12-23,-2.03, 8.81, 3.02, 2.24, 1.55, 7.07, repro,
2008-12-24,-0.36, 7.54, 10.37, 2.28, 1.59, 7.17, repro,
2008-12-25,-0.36, 8.03, 12.29, 2.26, 1.56, 7.12, repro,
2008-12-26,-1.62, 7.54, 10.22, 2.32, 1.60, 7.26, repro,
2008-12-27,-1.03, 10.75, 5.61, 2.29, 1.59, 7.27, repro,
2008-12-28,1.32, 10.51, -13.03, 2.27, 1.56, 7.14, repro,
2008-12-29,0.39, 9.44, -7.29, 2.30, 1.60, 7.33, repro,
2008-12-30,0.38, 8.02, -5.16, 2.33, 1.65, 7.47, repro,
2008-12-31,-0.99, 11.23, -13.49, 2.33, 1.63, 7.41, repro,
2009-01-01,-0.06, 9.30, -5.28, 2.36, 1.62, 7.37, repro,
2009-01-02,1.18, 9.40, 1.10, 2.32, 1.59, 7.20, repro,
2009-01-03,1.10, 8.15, 3.02, 2.29, 1.57, 7.19, repro,
2009-01-04,1.34, 8.95, -1.38, 2.26, 1.55, 7.09, repro,
2009-01-05,1.85, 10.60, 0.61, 2.40, 1.72, 7.91, repro,
2009-01-06,-0.03, 10.01, 0.11, 2.38, 1.69, 7.63, repro,
2009-01-07,1.48, 12.92, 8.67, 2.37, 1.65, 7.52, repro,
2009-01-08,-0.16, 5.77, 16.42, 2.37, 1.62, 7.50, repro,
2009-01-09,-10.17, 2.97, -20.63, 2.33, 1.61, 7.41, repro,
2009-01-10,-0.15, 7.29, -10.55, 2.35, 1.67, 7.56, repro,
2009-01-11,-1.15, 8.79, -14.70, 2.35, 1.62, 7.41, repro,
2009-01-12,2.00, 9.81, -34.34, 2.28, 1.58, 7.26, repro,
2009-01-13,-6.15, 7.33, -9.80, 2.36, 1.67, 7.58, repro,
2009-01-14,-2.10, 11.02, -20.25, 2.33, 1.62, 7.43, repro,
2009-01-15,2.46, 14.11, -9.75, 2.27, 1.59, 7.23, repro,
2009-01-16,4.55, 14.67, -9.84, 2.30, 1.63, 7.47, repro,
2009-01-17,-0.14, 13.73, -9.41, 2.36, 1.66, 7.56, repro,
2009-01-18,0.03, 13.43, -21.39, 2.35, 1.67, 7.46, repro,
2009-01-19,0.13, 12.97, -15.08, 2.30, 1.60, 7.32, repro,
2009-01-20,0.05, 12.67, -15.49, 2.33, 1.65, 7.53, repro,
2009-01-21,1.06, 12.60, -14.40, 2.32, 1.65, 7.55, repro,
2009-01-22,0.74, 11.08, -9.58, 2.42, 1.78, 7.79, repro,
2009-01-23,1.18, 11.98, -16.53, 2.24, 1.59, 7.21, repro,
2009-01-24,1.96, 12.13, -14.72, 2.27, 1.59, 7.28, repro,
2009-01-25,1.56, 11.19, -14.42, 2.29, 1.59, 7.26, repro,
2009-01-26,-1.01, 12.17, -10.52, 2.42, 1.77, 7.78, repro,
2009-01-27,-0.40, 11.77, -9.38, 2.35, 1.66, 7.51, repro,
2009-01-28,-0.14, 11.29, -19.26, 2.32, 1.66, 7.44, repro,
2009-01-29,-0.40, 10.47, -12.88, 2.31, 1.66, 7.44, repro,
2009-01-30,1.28, 13.01, -15.61, 2.28, 1.60, 7.30, repro,
2009-01-31,1.30, 11.58, -13.51, 2.38, 1.68, 7.59, repro,
2009-02-01,1.50, 12.04, -19.40, 2.34, 1.65, 7.45, repro,
2009-02-02,2.13, 13.46, -18.32, 2.38, 1.74, 7.67, repro,
2009-02-03,0.17, 12.39, -15.00, 2.34, 1.68, 7.44, repro,
2009-02-04,1.59, 14.99, -16.81, 2.33, 1.66, 7.43, repro,
2009-02-05,0.61, 14.05, -15.82, 2.44, 1.79, 8.00, repro,
2009-02-06,0.03, 11.64, -10.71, 2.46, 1.73, 7.75, repro,
2009-02-07,0.46, 12.40, -12.28, 2.36, 1.72, 7.57, repro,
2009-02-08,1.32, 10.87, -10.28, 2.35, 1.66, 7.47, repro,
2009-02-09,-0.57, 11.10, -7.06, 2.33, 1.65, 7.43, repro,
2009-02-10,0.74, 10.47, -6.70, 2.28, 1.58, 7.15, repro,
2009-02-11,0.13, 10.41, -13.65, 2.39, 1.69, 7.66, repro,
2009-02-12,-0.11, 9.98, -11.91, 2.47, 1.74, 7.85, repro,
2009-02-13,-0.16, 10.99, -13.49, 2.36, 1.71, 7.53, repro,
2009-02-14,-0.82, 10.76, -14.97, 2.28, 1.62, 7.27, repro,
2009-02-15,-1.22, 9.18, -7.43, 2.31, 1.63, 7.47, repro,
2009-02-16,0.12, 10.96, -3.89, 2.28, 1.60, 7.31, repro,
2009-02-17,-0.23, 10.03, -1.74, 2.38, 1.70, 7.57, repro,
2009-02-18,1.06, 11.27, -10.41, 2.36, 1.69, 7.65, repro,
2009-02-19,-0.24, 12.09, -10.26, 2.35, 1.72, 7.66, repro,
2009-02-20,-0.50, 12.60, -16.70, 2.46, 1.72, 7.77, repro,
2009-02-21,-0.33, 12.49, -12.96, 2.30, 1.61, 7.44, repro,
2009-02-22,-4.78, 15.46, -29.99, 2.32, 1.69, 7.49, repro,
2009-02-23,0.32, 11.39, -12.58, 2.37, 1.71, 7.76, repro,
2009-02-24,1.66, 11.64, -8.31, 2.39, 1.82, 7.90, repro,
2009-02-25,0.74, 11.36, -12.70, 160.98, 190.32, 362.13, repro,
2009-02-26,0.65, 11.19, -9.10, 2.29, 1.63, 7.37, repro,
2009-02-27,0.05, 11.19, -20.70, 2.32, 1.61, 7.41, repro,
2009-02-28,-1.71, 10.96, -10.44, 2.31, 1.66, 7.55, repro,
2009-03-01,-3.80, 15.58, -24.11, 2.33, 1.72, 7.72, repro,
2009-03-02,0.93, 10.62, -12.68, 2.28, 1.68, 7.55, repro,
2009-03-03,0.57, 12.21, -14.38, 2.33, 1.71, 7.65, repro,
2009-03-04,0.15, 10.78, -6.02, 2.26, 1.58, 7.16, repro,
2009-03-05,-0.42, 12.25, -17.20, 2.27, 1.62, 7.37, repro,
2009-03-06,-0.40, 10.40, -6.95, 2.30, 1.69, 7.63, repro,
2009-03-07,-1.76, 10.24, -5.85, 2.28, 1.66, 7.36, repro,
2009-03-08,0.11, 10.92, -12.45, 2.25, 1.60, 7.30, repro,
2009-03-09,0.29, 9.68, -9.49, 2.26, 1.60, 7.25, repro,
2009-03-10,-0.54, 9.21, -14.55, 2.32, 1.66, 7.49, repro,
2009-03-11,0.34, 10.55, -18.14, 2.28, 1.62, 7.33, repro,
2009-03-12,0.94, 12.16, -18.29, 2.30, 1.67, 7.46, repro,
2009-03-13,-0.65, 11.86, -13.28, 2.25, 1.61, 7.35, repro,
2009-03-14,1.54, 11.73, -7.46, 2.45, 1.69, 7.63, repro,
2009-03-15,3.38, 12.79, -5.86, 2.28, 1.65, 7.43, repro,
2009-03-16,2.88, 12.40, -10.16, 2.29, 1.63, 7.38, repro,
2009-03-17,2.09, 12.01, -10.62, 2.34, 1.68, 7.58, repro,
2009-03-18,0.25, 11.25, -14.42, 2.38, 1.74, 7.73, repro,
2009-03-19,-0.70, 13.66, -16.13, 2.35, 1.72, 7.54, repro,
2009-03-20,-0.62, 13.51, -11.99, 2.31, 1.72, 7.56, repro,
2009-03-21,-0.94, 11.95, -8.61, 2.32, 1.70, 7.53, repro,
2009-03-22,0.21, 12.37, -9.60, 2.32, 1.68, 7.49, repro,
2009-03-23,-0.05, 11.82, -11.36, 2.21, 1.56, 7.08, repro,
2009-03-24,0.38, 13.39, -16.79, 2.31, 1.66, 7.40, repro,
2009-03-25,0.39, 11.66, -18.80, 2.25, 1.62, 7.19, repro,
2009-03-26,-1.10, 11.74, -19.05, 2.26, 1.57, 7.12, repro,
2009-03-27,1.17, 11.99, -8.73, 2.28, 1.57, 7.16, repro,
2009-03-28,1.66, 12.65, -9.41, 2.31, 1.62, 7.32, repro,
2009-03-29,1.83, 10.49, -3.14, 2.31, 1.60, 7.29, repro,
2009-03-30,-0.11, 11.72, -11.79, 2.25, 1.56, 7.09, repro,
2009-03-31,1.51, 11.59, -7.30, 2.25, 1.56, 7.07, repro,
2009-04-01,0.56, 11.78, -12.92, 2.32, 1.62, 7.31, repro,
2009-04-02,3.48, 11.33, -7.97, 2.34, 1.62, 7.43, repro,
2009-04-03,0.10, 11.18, -14.83, 2.38, 1.66, 7.49, repro,
2009-04-04,0.89, 11.08, -14.60, 2.26, 1.58, 7.16, repro,
2009-04-05,-0.66, 13.38, -20.16, 2.40, 1.69, 7.57, repro,
2009-04-06,0.24, 12.92, -15.65, 2.32, 1.61, 7.26, repro,
2009-04-07,1.08, 13.53, -16.47, 2.32, 1.59, 7.24, repro,
2009-04-08,-0.26, 12.57, -15.37, 2.50, 1.77, 7.88, repro,
2009-04-09,0.51, 12.63, -13.70, 2.33, 1.65, 7.43, repro,
2009-04-10,-0.67, 11.66, -10.70, 2.30, 1.60, 7.27, repro,
2009-04-11,-0.65, 12.58, -13.86, 2.45, 1.62, 7.42, repro,
2009-04-12,0.70, 12.51, -16.68, 2.34, 1.64, 7.35, repro,
2009-04-13,-0.02, 11.41, -16.49, 2.35, 1.62, 7.32, repro,
2009-04-14,-0.26, 10.51, -17.07, 2.28, 1.56, 7.11, repro,
2009-04-15,-0.43, 11.11, -16.85, 2.33, 1.63, 7.30, repro,
2009-04-16,1.73, 12.38, -18.13, 2.31, 1.62, 7.35, repro,
2009-04-17,1.55, 13.05, -17.47, 2.34, 1.60, 7.34, repro,
2009-04-18,-0.53, 13.15, -14.13, 2.38, 1.65, 7.40, repro,
2009-04-19,1.89, 14.29, -15.44, 2.37, 1.67, 7.50, repro,
2009-04-20,-0.01, 14.62, -14.17, 2.42, 1.72, 7.72, repro,
2009-04-21,0.46, 13.75, -15.94, 2.46, 1.72, 7.80, repro,
2009-04-22,1.81, 13.37, -9.82, 2.34, 1.61, 7.38, repro,
2009-04-23,1.29, 12.83, -8.57, 2.37, 1.64, 7.52, repro,
2009-04-24,1.90, 12.46, -10.34, 2.38, 1.64, 7.40, repro,
2009-04-25,1.24, 12.15, -12.37, 2.30, 1.57, 7.20, repro,
2009-04-26,0.57, 12.42, -17.82, 2.38, 1.69, 7.54, repro,
2009-04-27,1.25, 12.32, -15.34, 2.45, 1.72, 7.78, repro,
2009-04-28,1.63, 14.22, -20.61, 2.46, 1.67, 7.70, repro,
2009-04-29,1.46, 13.56, -22.28, 2.43, 1.74, 7.69, repro,
2009-04-30,-0.51, 12.58, -18.02, 2.35, 1.63, 7.36, repro,
2009-05-01,-0.27, 13.40, -15.18, 2.36, 1.62, 7.41, repro,
2009-05-02,-0.56, 14.27, -17.39, 2.34, 1.61, 7.34, repro,
2009-05-03,1.11, 14.56, -10.47, 2.34, 1.59, 7.30, repro,
2009-05-04,0.32, 15.61, -16.71, 2.41, 1.64, 7.57, repro,
2009-05-05,2.29, 11.90, -3.04, 2.34, 1.58, 7.23, repro,
2009-05-06,2.79, 12.63, -12.56, 2.33, 1.60, 7.20, repro,
2009-05-07,0.93, 12.45, -16.62, 2.36, 1.64, 7.35, repro,
2009-05-08,-1.17, 13.93, -23.81, 2.31, 1.58, 7.16, repro,
2009-05-09,0.33, 13.96, -19.30, 2.38, 1.62, 7.47, repro,
2009-05-10,-0.06, 13.46, -19.67, 2.36, 1.66, 7.50, repro,
2009-05-11,0.56, 12.19, -10.13, 2.40, 1.66, 7.50, repro,
2009-05-12,1.72, 12.95, -14.68, 2.49, 1.77, 7.76, repro,
2009-05-13,1.29, 12.03, -11.72, 2.40, 1.69, 7.50, repro,
2009-05-14,4.34, 11.87, -14.43, 2.41, 1.64, 7.52, repro,
2009-05-15,1.57, 12.61, -17.28, 2.35, 1.63, 7.52, repro,
2009-05-16,1.34, 13.69, -19.41, 2.29, 1.58, 7.24, repro,
2009-05-17,0.83, 14.97, -22.19, 2.37, 1.66, 7.61, repro,
2009-05-18,2.86, 14.61, -19.20, 2.31, 1.61, 7.43, repro,
2009-05-19,1.73, 12.87, -10.88, 2.42, 1.74, 7.78, repro,
2009-05-20,2.31, 11.91, -17.21, 2.32, 1.59, 7.22, repro,
2009-05-21,2.55, 12.19, -15.85, 2.36, 1.64, 7.43, repro,
2009-05-22,0.67, 12.64, -17.47, 2.37, 1.65, 7.57, repro,
2009-05-23,1.66, 13.01, -21.11, 2.35, 1.62, 7.43, repro,
2009-05-24,4.10, 10.95, -26.92, 2.38, 1.62, 7.53, repro,
2009-05-25,2.84, 6.99, -18.15, 2.36, 1.66, 7.54, repro,
2009-05-26,5.33, 5.43, -15.86, 2.43, 1.71, 7.77, repro,
2009-05-27,7.71, 6.45, -18.22, 2.44, 1.70, 7.69, repro,
2009-05-28,3.08, 3.78, -11.87, 2.49, 1.77, 7.86, repro,
2009-05-29,0.01, 4.76, -18.28, 2.27, 1.59, 7.30, repro,
2009-05-30,1.69, 5.47, -14.54, 2.30, 1.60, 7.27, repro,
2009-05-31,2.66, 6.32, -15.65, 2.29, 1.57, 7.28, repro,
2009-06-01,2.66, 7.25, -13.80, 2.45, 1.73, 7.82, repro,
2009-06-02,2.77, 7.45, -20.04, 2.27, 1.60, 7.31, repro,
2009-06-03,2.24, 7.26, -15.70, 2.35, 1.63, 7.45, repro,
2009-06-04,2.95, 8.04, -21.65, 2.33, 1.62, 7.41, repro,
2009-06-05,1.09, 6.23, -14.12, 2.28, 1.59, 7.30, repro,
2009-06-06,4.87, 6.27, -8.10, 2.32, 1.61, 7.35, repro,
2009-06-07,2.25, 5.60, -7.88, 2.34, 1.64, 7.43, repro,
2009-06-08,2.21, 7.33, -15.83, 2.37, 1.65, 7.50, repro,
2009-06-09,1.51, 8.11, -13.39, 2.32, 1.63, 7.45, repro,
2009-06-10,2.10, 7.81, -20.72, 2.26, 1.58, 7.18, repro,
2009-06-11,-0.67, 7.26, -6.74, 2.35, 1.61, 7.47, repro,
2009-06-12,0.95, 6.67, -14.36, 2.33, 1.62, 7.40, repro,
2009-06-13,1.71, 6.30, -11.63, 2.29, 1.59, 7.27, repro,
2009-06-14,2.72, 7.30, -13.90, 2.31, 1.65, 7.41, repro,
2009-06-15,2.02, 8.51, -17.61, 2.37, 1.67, 7.61, repro,
2009-06-16,2.63, 5.31, -4.88, 2.31, 1.64, 7.38, repro,
2009-06-17,1.94, 6.10, -7.40, 2.38, 1.65, 7.54, repro,
2009-06-18,3.19, 6.91, -8.18, 2.37, 1.67, 7.63, repro,
2009-06-19,4.98, 7.77, -15.32, 2.27, 1.60, 7.26, repro,
2009-06-20,1.68, 6.01, -10.86, 2.33, 1.63, 7.37, repro,
2009-06-21,1.74, 5.10, -5.90, 2.29, 1.63, 7.30, repro,
2009-06-22,1.65, 5.48, -7.92, 2.28, 1.58, 7.19, repro,
2009-06-23,1.71, 6.08, -1.94, 2.48, 1.76, 7.80, repro,
2009-06-24,1.06, 7.06, -8.66, 2.27, 1.59, 7.24, repro,
2009-06-25,1.28, 5.83, -10.48, 2.27, 1.58, 7.21, repro,
2009-06-26,1.66, 5.79, -11.89, 2.34, 1.69, 7.54, repro,
2009-06-27,2.26, 7.45, -13.71, 2.29, 1.61, 7.34, repro,
2009-06-28,3.08, 5.95, -9.52, 2.30, 1.62, 7.41, repro,
2009-06-29,2.13, 6.07, -4.33, 2.29, 1.63, 7.42, repro,
2009-06-30,3.36, 5.32, -10.95, 2.30, 1.63, 7.37, repro,
2009-07-01,2.92, 6.06, -13.62, 2.28, 1.63, 7.38, repro,
2009-07-02,1.72, 7.22, -10.68, 2.28, 1.59, 7.28, repro,
2009-07-03,2.14, 6.91, -6.98, 2.27, 1.58, 7.17, repro,
2009-07-04,0.95, 5.30, -0.97, 2.26, 1.59, 7.24, repro,
2009-07-05,2.46, 6.88, -6.27, 2.28, 1.58, 7.19, repro,
2009-07-06,3.18, 5.50, -5.16, 2.26, 1.59, 7.20, repro,
2009-07-07,4.47, 6.69, -11.36, 2.37, 1.68, 7.52, repro,
2009-07-08,1.84, 4.36, -5.15, 2.34, 1.65, 7.46, repro,
2009-07-09,1.91, 4.72, -6.83, 2.26, 1.60, 7.16, repro,
2009-07-10,1.18, 6.02, -3.62, 2.27, 1.59, 7.14, repro,
2009-07-11,2.87, 6.17, -5.85, 2.31, 1.61, 7.40, repro,
2009-07-12,-5.35, 8.95, -19.02, 2.28, 1.62, 7.28, repro,
2009-07-13,1.80, 4.25, -5.52, 2.25, 1.59, 7.15, repro,
2009-07-14,1.60, 4.87, -5.46, 2.22, 1.56, 7.06, repro,
2009-07-15,1.65, 5.15, -2.06, 2.26, 1.61, 7.18, repro,
2009-07-16,1.71, 5.33, -4.95, 2.21, 1.57, 7.10, repro,
2009-07-17,0.95, 5.69, -5.39, 2.23, 1.57, 7.09, repro,
2009-07-18,2.21, 5.26, -8.00, 2.35, 1.67, 7.48, repro,
2009-07-19,1.48, 6.40, -6.41, 2.31, 1.63, 7.34, repro,
2009-07-20,2.45, 5.21, -7.45, 2.22, 1.57, 7.06, repro,
2009-07-21,1.56, 5.09, -2.02, 2.27, 1.62, 7.27, repro,
2009-07-22,0.66, 5.87, -1.85, 2.38, 1.67, 7.66, repro,
2009-07-23,2.62, 5.51, -9.21, 2.23, 1.59, 7.12, repro,
2009-07-24,-0.04, 4.30, 2.22, 2.30, 1.67, 7.52, repro,
2009-07-25,1.15, 5.91, -8.65, 2.39, 1.68, 7.62, repro,
2009-07-26,2.35, 3.69, -0.05, 2.35, 1.64, 7.53, repro,
2009-07-27,2.66, 4.60, -14.00, 3.38, 2.45, 11.43, repro,
2009-07-28,1.76, 3.10, 1.18, 2.23, 1.59, 7.17, repro,
2009-07-29,2.42, 5.00, -5.41, 2.30, 1.64, 7.54, repro,
2009-07-30,0.87, 5.56, -0.55, 2.28, 1.61, 7.30, repro,
2009-07-31,2.35, 4.59, -7.77, 2.23, 1.58, 7.14, repro,
2009-08-01,2.23, 4.87, -1.13, 2.28, 1.63, 7.29, repro,
2009-08-02,2.76, 4.54, -2.47, 2.31, 1.66, 7.40, repro,
2009-08-03,1.47, 3.59, -1.81, 2.24, 1.58, 7.13, repro,
2009-08-04,3.17, 3.87, -7.49, 2.32, 1.67, 7.53, repro,
2009-08-05,3.92, 5.91, -14.71, 2.32, 1.64, 7.43, repro,
2009-08-06,2.09, 3.75, -1.95, 2.37, 1.68, 7.61, repro,
2009-08-07,-0.77, 2.91, 4.28, 2.34, 1.62, 7.45, repro,
2009-08-08,-0.66, 3.26, -4.03, 2.30, 1.61, 7.32, repro,
2009-08-09,0.79, 3.42, -5.03, 2.42, 1.73, 7.71, repro,
2009-08-10,4.34, 3.82, -9.71, 2.26, 1.60, 7.20, repro,
2009-08-11,3.47, -3.48, 10.82, 4.08, 3.67, 16.17, repro,
2009-08-14,4.33, -1.50, -0.57, 7.80, 6.92, 27.56, repro,
2009-08-15,1.71, -1.31, 4.72, 2.72, 1.93, 8.97, repro,
2009-08-16,1.74, 1.86, -9.11, 3.43, 2.42, 10.59, repro,
2009-08-17,0.71, 0.24, -2.04, 2.33, 1.62, 7.30, repro,
2009-08-18,3.38, 2.19, 4.13, 2.27, 1.59, 7.11, repro,
2009-08-19,1.40, -0.09, 5.22, 2.28, 1.59, 7.15, repro,
2009-08-20,-3.23, 2.45, 2.14, 2.31, 1.66, 7.40, repro,
2009-08-21,2.91, -0.07, -0.42, 2.37, 1.64, 7.44, repro,
2009-08-22,1.32, 0.53, -4.13, 2.49, 1.79, 7.98, repro,
2009-08-23,1.78, 0.51, 1.13, 2.45, 1.70, 7.63, repro,
2009-08-24,1.53, -0.11, 2.73, 2.29, 1.61, 7.24, repro,
2009-08-25,0.32, 1.55, -2.56, 2.33, 1.66, 7.41, repro,
2009-08-26,-1.59, 2.69, -1.39, 2.31, 1.62, 7.32, repro,
2009-08-27,-0.21, 2.88, -5.43, 2.31, 1.61, 7.29, repro,
2009-08-28,0.98, 3.88, -18.85, 3.11, 2.37, 10.42, repro,
2009-08-29,-0.55, -0.23, -9.14, 5.61, 4.05, 18.05, repro,
2009-08-30,0.69, -0.87, 3.80, 2.31, 1.62, 7.24, repro,
2009-08-31,-2.41, 0.09, -5.99, 2.32, 1.64, 7.37, repro,
2009-09-01,-1.62, -4.85, 6.93, 12.15, 17.81, 79.89, repro,
2009-09-03,-1.57, 1.05, 1.19, 4.57, 3.42, 15.44, repro,
2009-09-04,2.31, 1.90, -4.74, 2.23, 1.60, 7.18, repro,
2009-09-05,4.05, 1.97, -5.04, 2.40, 1.71, 7.58, repro,
2009-09-06,-2.64, -1.99, 12.10, 3.12, 2.34, 10.62, repro,
2009-09-07,1.30, 0.50, -3.28, 2.25, 1.62, 7.32, repro,
2009-09-08,0.65, -0.72, 1.32, 2.28, 1.64, 7.41, repro,
2009-09-09,4.19, 1.95, -1.10, 2.69, 1.91, 8.60, repro,
2009-09-11,1.68, 1.58, -6.35, 2.28, 1.61, 7.26, repro,
2009-09-12,-4.98, 0.92, 1.19, 2.28, 1.62, 7.31, repro,
2009-09-13,-3.76, 0.24, -4.01, 2.30, 1.62, 7.40, repro,
2009-09-14,1.24, 0.18, 8.48, 2.28, 1.60, 7.26, repro,
2009-09-15,0.76, 0.28, 1.05, 2.30, 1.63, 7.37, repro,
2009-09-16,-1.51, 4.63, -9.77, 2.28, 1.61, 7.31, repro,
2009-09-17,1.24, 1.65, -10.95, 2.32, 1.67, 7.53, repro,
2009-09-18,0.21, 0.40, -3.62, 2.36, 1.68, 7.71, repro,
2009-09-19,3.15, 2.35, -0.92, 2.40, 1.69, 7.64, repro,
2009-09-20,0.38, -0.12, -2.75, 2.26, 1.60, 7.24, repro,
2009-09-21,-0.87, 1.97, -9.02, 2.26, 1.61, 7.29, repro,
2009-09-22,0.54, -0.59, -3.76, 2.40, 1.75, 7.78, repro,
2009-09-23,-1.80, 0.77, -4.82, 2.31, 1.65, 7.42, repro,
2009-09-24,1.79, 1.10, 0.63, 2.29, 1.61, 7.38, repro,
2009-09-25,0.95, 0.08, 0.90, 2.29, 1.64, 7.38, repro,
2009-09-26,1.60, 0.84, -1.81, 2.31, 1.66, 7.43, repro,
2009-09-27,-0.13, -0.11, 0.57, 2.26, 1.59, 7.17, repro,
2009-09-28,0.68, 0.09, 0.10, 2.34, 1.63, 7.44, repro,
2009-09-29,2.88, -2.47, 1.29, 2.34, 1.66, 7.50, repro,
2009-09-30,-0.27, -1.62, -0.46, 2.31, 1.63, 7.42, repro,
2009-10-01,-0.24, -1.76, -0.68, 2.36, 1.71, 7.65, repro,
2009-10-02,0.84, -1.47, -3.35, 2.27, 1.60, 7.23, repro,
2009-10-03,-0.74, -1.95, -1.08, 2.30, 1.67, 7.40, repro,
2009-10-04,0.52, -4.67, -0.31, 2.32, 1.63, 7.44, repro,
2009-10-05,-0.17, -2.55, 0.22, 2.35, 1.68, 7.69, repro,
2009-10-06,0.79, -1.03, -2.27, 2.30, 1.65, 7.42, repro,
2009-10-07,1.82, -1.53, 4.98, 2.27, 1.59, 7.22, repro,
2009-10-08,1.21, -1.31, 5.09, 2.34, 1.63, 7.32, repro,
2009-10-09,2.33, -1.31, 0.05, 2.30, 1.65, 7.50, repro,
2009-10-10,1.50, -0.51, 2.59, 2.28, 1.62, 7.37, repro,
2009-10-11,1.20, -0.57, -2.24, 2.31, 1.63, 7.40, repro,
2009-10-12,2.74, -1.08, 6.00, 2.31, 1.63, 7.38, repro,
2009-10-13,-0.82, 2.70, -3.15, 2.29, 1.62, 7.34, repro,
2009-10-14,0.93, 1.98, -3.14, 2.32, 1.63, 7.39, repro,
2009-10-15,1.16, 1.41, -4.45, 2.31, 1.67, 7.52, repro,
2009-10-16,-0.46, 2.34, -14.18, 2.31, 1.66, 7.55, repro,
2009-10-17,4.26, 2.45, -9.21, 2.33, 1.66, 7.49, repro,
2009-10-18,1.09, -0.39, 6.26, 2.33, 1.70, 7.63, repro,
2009-10-19,-0.38, -2.18, 1.56, 2.29, 1.65, 7.39, repro,
2009-10-20,0.38, -1.38, 3.34, 2.34, 1.71, 7.67, repro,
2009-10-21,2.05, 0.39, -0.60, 2.32, 1.65, 7.49, repro,
2009-10-22,2.22, -0.41, -3.34, 2.33, 1.68, 7.53, repro,
2009-10-23,4.32, -0.14, -5.94, 2.30, 1.66, 7.48, repro,
2009-10-24,2.22, -0.02, -0.03, 2.33, 1.68, 7.52, repro,
2009-10-25,1.79, -0.13, 3.78, 2.34, 1.67, 7.50, repro,
2009-10-26,3.49, -0.92, 1.69, 2.35, 1.73, 7.76, repro,
2009-10-27,1.27, -2.34, 3.73, 2.30, 1.65, 7.47, repro,
2009-10-28,-0.38, -1.52, 1.81, 2.47, 1.85, 8.08, repro,
2009-10-29,2.64, 0.20, 0.71, 2.31, 1.64, 7.42, repro,
2009-10-30,4.15, 2.56, -9.83, 2.32, 1.73, 7.63, repro,
2009-10-31,2.99, 0.86, 4.47, 2.39, 1.71, 7.71, repro,
2009-11-01,0.61, -1.79, 2.95, 2.29, 1.64, 7.43, repro,
2009-11-02,0.96, 1.34, -4.36, 2.37, 1.74, 7.72, repro,
2009-11-03,-0.93, 2.86, -3.38, 2.48, 1.74, 8.03, repro,
2009-11-04,-1.65, 7.50, -5.35, 2.28, 1.63, 7.37, repro,
2009-11-05,-0.61, 8.17, -5.68, 2.32, 1.72, 7.72, repro,
2009-11-06,0.12, 6.66, 4.54, 2.34, 1.69, 7.59, repro,
2009-11-07,-0.93, 8.70, 7.14, 2.34, 1.69, 7.61, repro,